Regional Weather Roundup
Issued by NWS Wakefield, VA

Home | Current Version | Previous Version | Text Only | Print | Product List | Glossary On
Versions: 1 2 3 4 5 6 7 8 9 10 11 12 13 14 15 16 17 18 19 20 21 22 23 24 25 26 27 28
000
ASUS41 KAKQ 262015
RWRAKQ

REGIONAL WEATHER ROUNDUP
NATIONAL WEATHER SERVICE WAKEFIELD VA
400 PM EDT TUE JUL 26 2016

Note: "fair" indicates few or no clouds below 12,000 feet with no
significant weather and/or obstructions to visibility. * = Denotes
station may not report precipitation (e.g., rain,snow,etc.),
thunder or fog.

VAZ042-051-052>054-056-262100-
NORTHERN VIRGINIA

CITY           SKY/WX    TMP DP  RH WIND       PRES   REMARKS
WASH NATIONAL  PTSUNNY   96  71  44 N13G20    29.92F HX 103
DULLES         PTSUNNY   91  68  46 NW12      29.94F HX  95
FORT BELVOIR   FAIR      96  67  38 NW10G20   29.91F HX 100
QUANTICO       PTSUNNY   96  68  39 NW8       29.92F HX 101
FREDERICKSBRG*   N/A     96  74  49 E10       29.90F HX 107
STAFFORD*      FAIR      95  66  38 NW5       29.96F HX  98
WARRENTON      FAIR      95  65  36 NE5       29.93F HX  97
CULPEPER*      FAIR      93  74  53 CALM      29.93F HX 103
MANASSAS*      MOSUNNY   95  70  43 N5        29.93F HX 101
LEESBURG*      FAIR      90  72  55 NW8G17    29.95F HX  96
WINCHESTER     FAIR      88  70  55 NW7       29.96F
FRONT ROYAL*   FAIR      90  70  51 NW6       29.95F HX  95
LURAY*         FAIR      91  68  46 CALM      29.96F HX  95
$$

VAZ048-049-060>072-079>083-262100-
CENTRAL AND SOUTH CENTRAL VIRGINIA

CITY           SKY/WX    TMP DP  RH WIND       PRES   REMARKS
RICHMOND       LGT RAIN  92  73  53 CALM      29.91F HX 100
CHESTERFIELD*  FAIR      97  66  36 E5        29.92F HX 100
PETERSBURG*    FAIR      96  74  48 CALM      29.92F HX 107
HANOVER        FAIR      95  72  47 VRB3      29.93F HX 103
TAPPAHANNOCK*  FAIR      96  69  41 SW5       29.92F HX 101
QUINTON*       FAIR      93  77  58 CALM      29.91F HX 106
CHARLOTTSVILLE FAIR      99  67  35 N6        29.93F HX 103
GORDONSVILLE*  FAIR      95  74  49 CALM      29.92F HX 106
ORANGE*          N/A     95  70  43 CALM      29.94F HX 101
LOUISA*        PTSUNNY   93  79  62 CALM      29.93F HX 110
BUMPASS*       FAIR      92  72  51 N3        29.92F HX 100
FARMVILLE*     NOT AVBL
CREWE*         MOCLDY    83  83 100 CALM      29.93F HX 102
FORT PICKETT*  MOCLDY    82  80  94 W6        29.94F
CHASE CITY*    FAIR      96  69  40 CALM      29.93F HX 102
CLARKSVILLE*   FAIR      97  73  46 SW7       29.93F HX 107
SOUTH HILL*    CLOUDY    96  76  52 SW6       29.97F HX 108
LAWRENCEVILLE* FAIR      97  75  49 NE5       29.92F HX 109
EMPORIA*       FAIR      79  73  83 NE5       29.95R THUNDER
$$

VAZ088>098-262100-
SOUTHEAST VIRGINIA

CITY           SKY/WX    TMP DP  RH WIND       PRES   REMARKS
NORFOLK        FAIR      91  75  59 NE10      29.91F HX 101
VIRGINIA BEACH PTSUNNY   95  76  53 E12       29.91F THUNDER HX 108
NORFOLK NAVAL  PTSUNNY   93  75  55 NE13      29.93F HX 104
WEST POINT*    CLOUDY    87  74  64 E10       29.93S HX  95
SALUDA*        MOCLDY    86  76  73 S6        29.93S HX  96
NEWPORT NEWS   PTSUNNY   91  78  65 E12       29.92F HX 106
LANGLEY AFB    LGT RAIN  90  79  70 E14       29.92F HX 105
FORT EUSTIS    FAIR      98  76  50 VRB3      29.90F HX 112
WILLIAMSBURG*  FAIR      99  75  47 S7        29.92F HX 111
HR EXEC AP*    FAIR      91  79  66 NW3       29.92F HX 107
FRANKLIN*      FAIR      93  75  55 NE3       29.90F HX 104
US460-WAKEFLD  FAIR      95  75  52 CALM      29.91F HAZE    HX 107
$$

VAZ020-022-025-037-045-262100-
WEST CENTRAL AND SOUTHWEST VIRGINIA

CITY           SKY/WX    TMP DP  RH WIND       PRES   REMARKS
STAUNTON*      TSTM      79  71  77 NW18      30.03R
WAYNESBORO*    MOCLDY    85  72  63 CALM      30.00F
HOT SPRINGS VA FAIR      81  68  65 NW5       30.15F
LYNCHBURG      FAIR      93  69  45 VRB5      29.97F HX  98
DANVILLE       FAIR      94  71  47 VRB3      29.95F HX 101
SOUTH BOSTON*  FAIR      95  72  47 SW5       29.93F HX 104
MARTINSVILLE   FAIR      94  69  42 CALM      30.00F HX  99
ROANOKE        PTSUNNY   94  68  42 CALM      29.99F HX  98
BLACKSBURG     FAIR      90  71  53 W5        30.08F HX  96
DUBLIN*        FAIR      90  70  52 NE3       30.07F HX  95
MARION*        FAIR      88  67  50 NW6       30.12F
HILLSVILLE*    FAIR      84  72  65 CALM      30.10F
RICHLANDS*     MOCLDY    85  71  63 CALM      30.11F
WISE*          FAIR      88  59  37 CALM      30.12F
ABINGDON*      FAIR      91  68  47 CALM      30.07F
$$

MDZ021>025-VAZ099-100-262100-
SOUTHERN MARYLAND AND THE DELMARVA PENINSULA

CITY           SKY/WX    TMP DP  RH WIND       PRES   REMARKS
PATUXENT RIVER TSTM      80  73  79 SW7       29.93S
BAY BRIDGE APT CLOUDY    90  73  58 W3        29.92S HX  98
LEONARDTOWN    CLOUDY    79  72  78 MISG        N/A
DOVER          CLOUDY    91  74  57 SW8       29.90F HX  99
GEORGETOWN     MOSUNNY   92  74  55 VRB5      29.92F HX 101
EASTON         PTSUNNY   93  77  59 W7        29.95F HX 107
CAMBRIDGE      MOSUNNY   90  72  55 N5        29.91F HX  96
SALISBURY      CLOUDY    89  76  65 SE7       29.92F HX 100
OCEAN CITY     MOSUNNY   84  73  69 VRB3      29.93F
WALLOPS ISLAND FAIR      87  72  60 SE10      29.94F
ACCOMACK*      FAIR      90  70  51 CALM      29.93F HX  95
$$

NCZ012>017-030>032-262100-
NORTH CENTRAL AND EASTERN NORTH CAROLINA

CITY           SKY/WX    TMP DP  RH WIND       PRES   REMARKS
ROANOKE RAPIDS FAIR      91  77  62 S9        29.91F HX 105
RALEIGH        PTSUNNY   95  75  52 W9        29.95F HX 107
ELIZABETH CITY MOSUNNY   93  77  59 SW5       29.91F HX 107
AHOSKIE*         N/A     92  79  64 S5        29.91F HX 109
EDENTON*       SUNNY     96  76  51 SW5       29.92F HX 108
CURRITUCK*     PTSUNNY   94  78  59 E6        29.93F HX 109
KILL DEVIL HLS SUNNY     97  74  47 SE7       29.92F HX 108
MANTEO           N/A     91  79  68 N6        29.94F HX 106
CAPE HATTERAS  SUNNY     86  77  74 SW13G24   29.96F HX  97
TARBORO*       FAIR      96  78  56 SW9       29.93F HX 111
GOLDSBORO      MOSUNNY   97  74  48 SW14      29.93F HX 109
WASHINGTON     SUNNY     94  77  58 SW10      29.93F HX 107
GREENVILLE     MOSUNNY   95  77  55 W8        29.95F HAZE    HX 109
NEW BERN       SUNNY     94  75  54 SW10      29.96F HX 105
WILMINGTON     MOSUNNY   92  74  55 S10       29.98F HX 101
$$

VAZ048-262100-
ELSEWHERE

CITY           SKY/WX    TMP DP  RH WIND       PRES   REMARKS
HARRISBURG PA  PTSUNNY   90  72  55 SW5       29.90F HX  97
BALTIMORE      CLOUDY    91  68  46 W12       29.92F HX  95
ANNAPOLIS      CLOUDY    91  72  53 NW6       29.91F HX  98
ANDREWS AFB    FAIR      92  69  47 NW9       29.92F HX  97
PHILADELPHIA   CLOUDY    90  65  43 W13       29.91S
GREENSBORO     PTSUNNY   94  68  42 SW3       29.96F HX  98
ROCKY MOUNT    MOSUNNY   95  77  55 SW8       29.93F HX 109
$$

VAZ100-262100-
MARINE

STATION/POSITION TIME  TEMP    WIND        PRES    WAVE   SWELL
                       AIR SEA DIR/SP/G            HT/PER HT/PER
                 (UTC) (F)     (DEG/KT/KT) (MB)    (FT/S) (FT/S)
BRANDYWINE LGT   1900   82     200/  2/  2   N/A
CAPE MAY NJ      1900   80 74  250/  4/  4 1013.1F
LEWES DE         1900   83 75   70/  2/  3 1013.4F
OCEAN-CITY-INLET 1900   79 70  190/  4/  6 1014.1F
WACHAPREAGUE VA  1900   82 86   90/  6/  7 1014.0F
THOMAS POINT MD  2000   87 86  170/  5/  5 1014.3F
GOOSES REEF MD   1900   88 88  100/  2/  4 1014.6F   1
COVE POINT MD    1900   86      60/  5/  8 1014.0F
SOLOMONS ISLAND  1900   86 86  100/  7/  7   N/A
BISHOPS HEAD MD  1900   87     260/  4/  5 1013.9F
PINEY POINT MD   1900          160/  7/  8   N/A
POTOMAC MD       1900   86 87  120/  4/  6 1012.5F   0
CAMBRIDGE MD     1900   88 86  330/  6/  8 1012.7F
LEWISETTA VA     1900   86 88  110/  7/  8 1013.1F
RAPPAHANNOCK LGT 1900           50/  5/  6 1014.4F
STINGRAY PT      1900   87 87   30/  4/  6 1014.1F   1
YORK RVR RNG VA  1900   85      90/  8/  9 1013.3F
YORKTOWN VA      1900   86 84   90/  9/ 11 1013.4F
JAMESTOWN VA     1900   92 89  250/  2/  4   N/A     0
DOMINION TERM VA 1900   87     100/  7/ 10 1013.8F
KIPTOPEKE VA     1900      85   90/  8/ 11   N/A
CHES BAY BRIDGE  1900   84 78   20/ 10/ 12 1013.6F
CAPE HENRY VA    1900   85     360/  6/  6   N/A
WILLOUBY STN VA  1900   85      80/  7/  7   N/A
CAPE HENRY BUOY  1912      76                N/A     2/ 5
1ST LANDING BUOY 1900   88 81   40/  4/  6 1013.2F
CAPE CHARLES BUO 1926      77                N/A     2/ 4
OFFSHORE WE BUOY 1921      83                N/A     2/ 5
64NM E OF VA BCH 1950   82 80  240/  8/  8 1013.5F   4/ 6   3/ 6
DUCK PIER NC     1900   85 61  110/  6/  8 1013.4F
44100 DUCK FRF   1905      78                N/A     2/ 6
44056 DUCK FRF   1911      73                N/A     1/ 8
OREGON INLET NC  1900   85 85  190/ 13/ 15 1014.0F
HATTERAS NC      1900   86 83  220/ 12/ 20 1014.7F
DIAMOND SHLS NC  1950   84 85  240/ 19/ 23 1014.7S   6/ 5
CAPE LOOKOUT NC  1900   86     230/ 13/ 17 1015.3F
$$




USA.gov is the U.S. government's official web portal to all federal, state and local government web resources and services.